Regional Weather Roundup
Issued by NWS

Home | Current Version | Previous Version | Graphics & Text | Print | Product List | Glossary On
Versions: 1 2 3 4 5 6 7 8 9 10 11 12 13 14 15 16 17 18 19 20 21 22 23 24 25 26 27 28 29 30 31 32 33 34 35 36 37 38 39 40 41 42 43 44 45 46 47 48 49 50
000
ASUS43 KMPX 222001
RWRMN
WEATHER ROUNDUP FOR MINNESOTA
NATIONAL WEATHER SERVICE TWIN CITIES/CHANHASSEN MN
300 PM CDT TUE AUG 22 2017


NOTE: "FAIR" INDICATES FEW OR NO CLOUDS BELOW 12,000 FEET WITH NO
SIGNIFICANT WEATHER AND/OR OBSTRUCTIONS TO VISIBILITY. N/A MEANS
CURRENT SKY AND/OR WEATHER CONDITIONS ARE NOT AVAILABLE.

MNZ060>063-068>070-222100-
   Twin Cities Metro

CITY           SKY/WX    TMP DP  RH WIND       PRES   REMARKS
TWIN CITIES    MOSUNNY   75  47  36 NW21G29   30.03F
ST PAUL        MOSUNNY   72  49  44 NW16G26   30.03S
CRYSTAL        PTSUNNY   72  46  39 NW18G31   30.02S
BLAINE         PTSUNNY   75  46  35 W16G26    30.02S
LAKEVILLE      MOSUNNY   72  52  49 W15G23    30.05S
EDEN PRAIRIE   MOSUNNY   75  47  36 NW16G24   30.04S
SOUTH ST PAUL  MOSUNNY   75  46  35 NW16G25   30.03S
LAKE ELMO      FAIR      73  50  43 NW17G23   30.03F
$$
MNZ001>005-007-008-013>017-022>024-027-028-222100-
   Northwest Minnesota

CITY           SKY/WX    TMP DP  RH WIND       PRES   REMARKS
BEMIDJI        PTSUNNY   70  45  40 NW20G29   30.02R
HALLOCK        MOSUNNY   75  43  31 NW21G38   30.02S
ROSEAU         MOSUNNY   70  55  60 NW25G33   30.01R
WARROAD        SUNNY     66  55  68 NW18G26   30.00R
CROOKSTON      MOSUNNY   75  39  27 NW22G30   30.05S
FOSSTON        MOSUNNY   70  39  32 NW20G28   30.05S
DETROIT LAKES  SUNNY     72  41  33 NW20      30.08S
MOORHEAD       MOSUNNY   73  43  33 NW21      30.08F
PARK RAPIDS    MOSUNNY   74  45  35 NW20G29   30.03F
MAHNOMEN       FAIR      72  44  36 NW21      30.05S
$$
MNZ006-009>011-018-025>026-222100-
   North Central Minnesota

CITY           SKY/WX    TMP DP  RH WIND       PRES   REMARKS
BAUDETTE       PTSUNNY   69  56  62 NW24G30   29.97R
FLAG ISLAND    MOSUNNY   64  54  68 NW17      29.97R
INTL FALLS     MOSUNNY   65  54  67 NW12G23   29.93R
WASKISH        CLOUDY    66  54  63 NW12G21   29.98S
BIG FORK       MOSUNNY   63  55  77 NW5       29.97R
LONGVILLE      PTSUNNY   70  48  46 W15       30.01S
GRAND RAPIDS   CLOUDY    67  48  50 NW21G32   29.99S
CRANE LAKE     CLOUDY    64  52  63 W6        29.92S
ORR            PTSUNNY   63  50  63 W15       29.91S
COOK           MOSUNNY   64  54  68 W13G21    29.94R
WALKER         MOCLDY    68  44  42 NW16G26   30.02S
$$
MNZ012-019>021-037-222100-
   Northeast Minnesota

CITY           SKY/WX    TMP DP  RH WIND       PRES   REMARKS
DULUTH         PTSUNNY   63  51  65 W18G26    29.94S
ELY            HVY RAIN  57  52  82 NW8G29    29.91R
HIBBING        LGT RAIN  60  53  77 NW13G25   29.96R
EVELETH        PTSUNNY   63  41  45 NW24G31   29.96R
DULUTH HARBOR  CLOUDY    70  55  60 W20       29.94S
TWO HARBORS    MOSUNNY   70  55  60 W9G18     29.90R
GRAND MARAIS     N/A     68  55  63 W13G26    29.82S
G MARAIS ARPRT MOSUNNY   64  45  48 NW10G21   29.86S
$$
MNZ029>031-032-039>041-046>048-054>057-064-222100-
   West Central Minnesota

CITY           SKY/WX    TMP DP  RH WIND       PRES   REMARKS
FERGUS FALLS   MOSUNNY   72  48  43 NW12      30.09S
WHEATON        MOSUNNY   73  43  33 W16G22    30.13S
MORRIS         SUNNY     73  45  35 NW20      30.11R
ALEXANDRIA     MOSUNNY   72  48  42 NW15G24   30.11S
ELBOW LAKE     FAIR      70  45  40 NW18G25   30.11S
WADENA         MOSUNNY   68  46  45 NW10G21   30.06S
GLENWOOD       MOSUNNY   70  45  40 NW17G25   30.10F
APPLETON       MOSUNNY   73  45  35 NW15      30.11S
BENSON         SUNNY     75  43  31 N15G24    30.12S
ORTONVILLE     SUNNY     73  45  35 MISG      30.12S
MADISON        SUNNY     75  52  43 NW14G23   30.13S
WILLMAR        FAIR      73  50  43 NW16G23   30.11S
$$
MNZ033>034-036-042>043-049>051-058-059-222100-
   Central Minnesota

CITY           SKY/WX    TMP DP  RH WIND       PRES   REMARKS
ST CLOUD       PTSUNNY   73  47  39 NW20G25   30.05S
SAUK CENTRE    FAIR      71  46  41 NW17G25   30.09S
PAYNESVILLE    SUNNY     71  46  42 NW16G23   30.09S
AITKIN         MOSUNNY   70  48  46 W13G21    30.00S
PINE RIVER     PTSUNNY   66  45  45 NW12G21   30.05F
BRAINERD       CLOUDY    70  44  39 NW15G24   30.03S
STAPLES        MOSUNNY   70  45  40 W16G22    30.06R
LONG PRAIRIE   FAIR      70  46  43 W14G20    30.08S
LITTLE FALLS   MOSUNNY   72  43  35 W14G20    30.06S
LITCHFIELD     SUNNY     73  50  43 NW14G23   30.09S
BUFFALO        MOSUNNY   73  46  38 NW13G23   30.06F
MAPLE LAKE     MOSUNNY   74  52  46 NW14      30.07S
HUTCHINSON     MOSUNNY   73  51  46 W14G20    30.09S
$$
MNZ037-044-045-052-053-222100-
   East Central Minnesota

CITY           SKY/WX    TMP DP  RH WIND       PRES   REMARKS
PRINCETON      MOSUNNY   73  46  38 NW14      30.04S
MORA           MOSUNNY   68  45  42 NW15G24   30.04S
CAMBRIDGE      MOSUNNY   75  52  43 NW13G20   30.03S
RUSH CITY      MOSUNNY   73  48  42 NW15      30.02S HAZE
MOOSE LAKE     PTSUNNY   70  50  49 W12G20    29.97S
HINCKLEY       MOCLDY    72  50  46 W10       30.00F
CLOQUET        MOSUNNY   68  46  45 W12G23    29.96F
MCGREGOR       MOSUNNY   70  46  43 W13G22    30.00S
$$
MNZ071>073-080-081-089-090-097-098-222100-
   Southwest Minnesota

CITY           SKY/WX    TMP DP  RH WIND       PRES   REMARKS
MONTEVIDEO     SUNNY     75  50  41 NW15G23   30.12S
GRANITE FALLS  SUNNY     74  49  40 NW14G23   30.13F
CANBY          SUNNY     74  44  33 W14G22    30.15S
MARSHALL       SUNNY     72  49  44 NW16      30.13S
REDWOOD FALLS  PTSUNNY   74  47  38 NW18G28   30.10F
OLIVIA         MOSUNNY   72  48  43 NW16G23   30.10F
PIPESTONE      SUNNY     72  45  37 N9G18     30.17S
WINDOM         SUNNY     72  48  43 NW13G22   30.13F
WORTHINGTON    SUNNY     71  48  43 N16       30.16S
JACKSON        SUNNY     70  48  46 NW15G21   30.14F
TRACY          SUNNY     72  51  48 NW14G24   30.14S
SLAYTON        SUNNY     71  42  36 NW17      30.16S
$$
MNZ065>067-074>077-082>085-091>093-222100-
   South Central Minnesota

CITY           SKY/WX    TMP DP  RH WIND       PRES   REMARKS
MANKATO        MOSUNNY   71  50  47 NW20G26   30.08F
NEW ULM        MOSUNNY   72  48  43 NW16G25   30.10S
ST JAMES       MOSUNNY   72  48  43 W16G24    30.12S
GLENCOE        MOSUNNY   73  53  49 NW16G25   30.07S
FARIBAULT      MOSUNNY   72  54  53 W15G25    30.07S
OWATONNA       SUNNY     72  52  49 NW18G25   30.07F
WASECA         MOSUNNY   72  52  49 W18G26    30.09F
ALBERT LEA     SUNNY     73  50  43 NW14G21   30.08F
$$
MNZ078>079-086>088-094>096-222100-
   Southeast Minnesota

CITY           SKY/WX    TMP DP  RH WIND       PRES   REMARKS
ROCHESTER      MOSUNNY   70  51  51 NW17G29   30.06S
RED WING       MOSUNNY   73  43  33 NW13G18   30.01F
STANTON        MOSUNNY   73  50  43 W17       30.03F
DODGE CENTER   MOSUNNY   70  48  46 NW15G26   30.07S
WINONA         MOSUNNY   73  52  46 NW9G18    30.02S
AUSTIN         MOSUNNY   72  48  43 NW17      30.07S
PRESTON        MOSUNNY   69  50  49 NW20G25   30.06S
$$
ABBREVIATIONS USED IN REMARKS
   TC - TEMPERATURES IN CELSIUS
  WCI - WIND CHILL INDEX
   HX - HEAT INDEX
  VSB - VISIBILITY
$$




USA.gov is the U.S. government's official web portal to all federal, state and local government web resources and services.